Vertical_Velocity
-1 -0 0 0 -0 -0 0 -1 1 -0 -1 0 1 -0 -1 -1 -1 -1 -1 -0 -2 -3 -3 -1 -1 -2 -2 0 1 13 -0 -6 -5 21 13 -6 12 2 38 -3 4 7 2 1 -4
-1 -1 0 0 0 1 -1 -1 0 -1 -1 -0 -0 -0 -1 -1 -1 -2 -1 -1 -1 -2 -3 -4 -4 -3 -0 -5 1 2 1 3 -6 -2 4 8 4 4 7 -7 6 -3 1 -1 -3
-0 -0 -1 -0 -0 0 -1 -1 -1 0 -1 -1 -0 -1 -1 -1 -0 -1 -2 -2 -2 -1 -5 -3 -4 -4 -8 -3 -1 -3 2 3 4 3 2 12 12 -3 -3 -1 -1 -5 -3 -3 -3
-1 -0 -1 -1 -1 -0 -0 -1 -0 1 -1 -2 -1 -0 -0 -1 -1 1 -2 -3 -3 -2 -1 -1 -3 -3 -4 -2 -1 -1 1 6 5 10 20 3 -2 -2 7 -4 -3 -4 -2 -3 -3
0 -1 -1 -0 -1 -0 -1 0 -1 -0 0 -1 -1 -2 -1 -1 -1 -2 0 -2 -1 -2 -1 -1 -4 -3 -7 -3 -3 -3 -2 2 9 11 2 12 -6 -20 2 10 1 0 1 -2 -2
-0 -1 -1 0 -1 -1 -1 1 -0 -1 -0 0 -1 -2 -1 -1 -1 -2 -1 -1 -1 -1 -1 -1 -1 -2 -3 -3 -3 -4 -1 -3 7 4 2 -24 15 -30 7 10 3 1 2 -3 -3
-1 1 -1 -1 1 -1 -0 0 1 -0 -1 0 -0 -0 -0 -2 -1 -1 -1 -2 -3 -2 -1 -1 -2 -2 -3 -4 -3 -4 -7 -2 8 9 -6 5 13 -19 -2 16 4 0 0 -1 -2
-1 -0 -1 -1 1 0 -1 -0 -1 1 -0 -1 -1 -1 -3 -1 -1 -1 -1 -2 -2 -2 -2 -2 -1 -3 -3 -3 -1 -8 -2 2 -1 8 8 6 4 1 5 3 0 -0 -0 -1 -2
-1 -0 -0 -1 -1 -0 -1 0 -0 0 0 -1 -1 -0 -2 -2 -1 -1 -1 -0 -1 -2 -1 -2 -0 -3 -2 -6 -7 11 12 1 -3 -6 3 1 -9 -11 -14 3 1 -1 -0 -2 -2
0 1 0 1 -1 -0 -0 -1 -1 -0 -1 -2 -1 -1 0 -1 0 1 1 1 -0 -1 -2 -2 -2 -1 -3 -3 1 14 14 6 4 3 -2 -1 11 20 -0 -11 1 -4 -3 -2 -1
-1 -1 1 -0 -0 -0 1 -1 -1 -1 -1 -0 -1 -0 -1 -1 -2 1 1 0 1 -0 -1 -0 -1 -1 -2 -0 -2 5 -5 -3 -4 1 0 1 -1 -9 37 1 -13 2 -6 -2 -1
-1 0 -0 -1 -0 0 0 0 -0 1 0 -1 -1 -0 -0 -0 0 1 0 -1 0 -1 1 -1 -1 -2 -0 -2 -1 -1 -3 -4 -6 -2 -3 -0 -0 -6 -9 14 -8 -13 -5 -3 -1
0 2 1 1 -0 -1 0 -1 1 0 -1 -0 -1 -1 -1 -1 -1 1 -1 -1 -1 -1 -1 -1 -2 2 -0 1 -1 1 -1 -2 -4 -3 -2 -5 -5 -12 1 1 -4 3 20 0 -1
1 1 1 1 -0 0 1 1 0 0 -2 -1 1 4 -0 -2 -0 -1 -2 -1 -1 -2 -2 -1 -1 0 0 1 0 0 1 4 -1 -1 -3 2 -0 5 -12 13 8 6 -7 6 -3
2 2 2 -0 1 0 1 -0 -0 -1 -4 1 -1 -1 -0 -3 1 -5 1 -1 -1 -1 -1 -2 -1 -0 0 1 -1 1 -1 -1 -1 -3 -2 -3 -7 -4 -1 6 3 -4 -7 6 1
1 1 2 0 1 -1 1 -0 -1 -1 -7 -3 -1 -0 -1 -2 -2 1 -3 -2 -2 -1 -0 -0 -2 -1 -0 0 -0 0 -0 -1 -1 -2 -3 -4 -5 -10 20 19 17 10 16 1 -1
1 -0 0 2 0 0 1 -1 -0 -0 2 -6 -2 -1 -3 -1 -3 -1 -1 -1 -1 1 -0 -1 4 3 -1 -1 -0 -0 1 -1 -2 4 -13 2 -5 -19 18 -2 1 -11 -4 -3 -14
1 0 1 1 0 0 -1 -0 4 2 -2 -2 -5 -1 -3 -3 -3 -2 -3 -2 1 -1 -2 0 14 -4 -4 1 0 -1 1 1 0 6 21 45 -4 18 -11 -4 -6 -11 -6 4 -24
1 0 -0 1 1 -0 -0 4 3 -1 -1 1 0 -6 -5 -5 2 -0 -2 -2 -1 -4 1 -2 16 -1 -2 -2 -1 6 0 1 2 -1 -5 -12 50 -4 -7 5 -7 -4 6 -6 -31
1 1 3 1 1 -1 2 2 -7 -3 5 1 -2 1 0 -4 -1 0 -1 -1 1 -2 -3 1 -5 2 9 -3 -0 1 3 -1 2 -3 -7 -11 -2 27 3 -5 -11 -16 8 -6 -12
4 -1 6 2 1 -1 8 3 -1 -4 2 3 2 1 -1 2 -1 -2 -2 4 -1 -5 2 1 -0 -1 5 -6 -3 4 -3 -6 1 -1 9 9 5 18 16 9 2 -0 -7 -16 5
1 -1 -5 0 3 2 2 5 -1 -1 2 -0 1 1 -0 1 -1 -3 5 5 -0 -2 -5 3 -1 -2 -2 18 7 -13 -3 10 9 -6 -14 -12 9 -19 -4 2 1 -3 1 -9 3
1 -8 -3 1 7 5 2 -3 3 1 3 -1 -1 1 -2 1 -2 0 6 -7 -2 0 -8 -2 1 -2 -4 5 46 14 4 -1 -4 7 9 11 7 42 -9 7 1 -9 -17 -2 -5
0 7 3 5 -5 8 4 -5 -2 -1 1 -1 2 -2 2 2 3 -0 -1 -5 -6 1 5 1 7 0 -8 16 -4 -2 -4 4 -4 1 11 1 4 79 -4 -14 -9 -7 -10 -14 1
5 -1 -19 3 5 1 -3 -3 -1 -3 4 -3 -1 0 2 1 2 -0 -2 -2 -7 -12 -0 2 -4 -1 -3 -6 2 7 -4 3 16 0 8 -21 1 34 -7 49 84 16 -9 -11 4
-0 -16 -2 -0 -7 -3 -8 -1 3 -1 -2 3 1 0 2 0 0 -8 2 -1 0 -5 -10 -4 -3 -2 -6 -2 -7 -10 -3 -2 -2 -6 -10 6 -24 5 43 8 -9 20 -12 -6 -4
6 2 -1 -1 2 1 1 -1 -2 -3 -11 8 -5 2 1 -11 -2 2 -0 7 -1 -5 1 -2 -2 -2 -5 -7 -2 -9 -1 26 -4 -5 -3 -11 3 -8 9 52 -30 18 20 -6 -9
Height
5909 5911 5913 5914 5916 5917 5918 5919 5920 5922 5923 5924 5924 5925 5926 5927 5928 5929 5929 5930 5930 5931 5931 5931 5931 5932 5931 5930 5929 5930 5927 5924 5922 5913 5921 5924 5925 5925 5921 5923 5920 5916 5914 5915 5914
5909 5911 5913 5915 5916 5917 5919 5920 5922 5923 5924 5926 5926 5927 5928 5929 5929 5930 5931 5931 5931 5932 5932 5932 5931 5932 5933 5933 5934 5934 5934 5933 5929 5924 5928 5928 5925 5928 5927 5921 5922 5919 5918 5916 5915
5909 5911 5913 5915 5916 5918 5919 5921 5923 5924 5925 5926 5927 5929 5929 5930 5931 5932 5932 5933 5933 5933 5933 5933 5932 5933 5935 5938 5937 5936 5936 5933 5931 5932 5933 5933 5931 5928 5926 5923 5922 5920 5920 5919 5918
5908 5911 5913 5914 5916 5918 5920 5922 5923 5924 5926 5927 5928 5929 5930 5931 5933 5933 5934 5934 5935 5934 5935 5935 5934 5935 5938 5939 5937 5937 5936 5935 5934 5937 5940 5940 5943 5936 5929 5926 5923 5923 5923 5922 5921
5907 5910 5912 5914 5916 5918 5920 5922 5923 5925 5926 5928 5929 5930 5931 5932 5933 5933 5935 5935 5936 5935 5936 5936 5935 5936 5936 5938 5938 5938 5937 5936 5937 5939 5940 5929 5924 5933 5934 5930 5926 5926 5926 5925 5924
5906 5908 5911 5913 5915 5918 5920 5922 5923 5925 5926 5927 5929 5930 5931 5933 5933 5934 5935 5936 5936 5936 5936 5937 5937 5937 5937 5938 5939 5939 5938 5937 5940 5941 5931 5932 5929 5930 5931 5933 5929 5928 5928 5927 5926
5904 5907 5910 5912 5914 5917 5919 5921 5923 5924 5926 5927 5928 5930 5931 5933 5933 5934 5935 5935 5936 5937 5937 5937 5937 5938 5938 5937 5939 5939 5938 5940 5940 5941 5935 5935 5929 5931 5932 5933 5931 5930 5929 5929 5929
5903 5905 5908 5911 5913 5916 5918 5920 5922 5923 5925 5927 5928 5929 5931 5932 5933 5934 5935 5936 5936 5937 5937 5937 5938 5939 5938 5939 5941 5942 5942 5942 5941 5940 5941 5936 5937 5935 5930 5934 5932 5932 5932 5931 5930
5901 5904 5907 5910 5912 5914 5917 5919 5921 5922 5924 5925 5927 5929 5930 5931 5933 5934 5935 5936 5936 5937 5937 5937 5937 5939 5939 5939 5941 5945 5948 5948 5946 5941 5939 5939 5937 5932 5932 5934 5934 5932 5932 5932 5931
5900 5902 5905 5908 5910 5913 5915 5917 5919 5921 5923 5924 5926 5929 5929 5931 5932 5933 5934 5935 5936 5936 5937 5937 5937 5937 5938 5939 5944 5947 5947 5947 5947 5946 5940 5939 5942 5942 5934 5935 5937 5934 5932 5932 5932
5898 5901 5904 5907 5909 5912 5914 5916 5920 5921 5922 5924 5925 5926 5928 5929 5930 5931 5932 5934 5934 5935 5936 5936 5937 5937 5937 5941 5943 5946 5945 5945 5943 5944 5941 5940 5939 5941 5943 5937 5934 5937 5933 5933 5932
5896 5899 5902 5905 5908 5910 5913 5915 5917 5920 5921 5922 5924 5925 5926 5928 5929 5930 5931 5933 5933 5933 5934 5935 5935 5935 5936 5938 5940 5940 5940 5940 5941 5942 5941 5940 5940 5940 5941 5942 5936 5934 5932 5932 5932
5894 5897 5900 5903 5906 5909 5911 5914 5915 5917 5920 5922 5923 5924 5926 5927 5928 5928 5930 5930 5931 5932 5932 5933 5934 5936 5935 5936 5937 5937 5937 5938 5939 5939 5940 5939 5940 5939 5940 5940 5938 5936 5929 5929 5932
5892 5895 5899 5902 5906 5908 5910 5912 5914 5916 5918 5921 5922 5923 5924 5925 5926 5926 5927 5928 5929 5929 5930 5931 5932 5932 5933 5933 5933 5934 5935 5938 5936 5936 5936 5939 5941 5942 5942 5941 5939 5937 5931 5921 5927
5890 5894 5897 5900 5903 5906 5909 5911 5913 5914 5916 5920 5920 5921 5922 5923 5924 5924 5924 5925 5925 5926 5928 5929 5928 5929 5930 5930 5930 5931 5931 5931 5931 5931 5932 5935 5938 5941 5940 5941 5940 5938 5934 5934 5927
5887 5891 5895 5898 5901 5904 5907 5909 5912 5915 5913 5917 5918 5919 5919 5920 5920 5921 5922 5922 5922 5923 5924 5925 5925 5926 5927 5926 5927 5928 5928 5928 5928 5929 5930 5932 5935 5938 5941 5940 5940 5937 5937 5932 5931
5883 5887 5892 5895 5899 5901 5904 5907 5911 5911 5913 5915 5916 5916 5916 5917 5917 5917 5918 5918 5919 5920 5921 5920 5923 5923 5922 5923 5923 5924 5924 5925 5928 5931 5931 5933 5934 5936 5938 5935 5934 5933 5932 5930 5925
5878 5883 5888 5892 5895 5898 5902 5906 5908 5910 5910 5911 5911 5913 5913 5913 5913 5913 5914 5915 5916 5916 5917 5919 5925 5918 5916 5918 5920 5920 5922 5925 5928 5931 5934 5935 5934 5935 5932 5931 5927 5927 5927 5926 5921
5873 5878 5883 5887 5891 5895 5899 5902 5904 5905 5907 5908 5909 5908 5909 5909 5911 5910 5910 5911 5911 5911 5914 5917 5922 5916 5913 5913 5916 5918 5917 5922 5924 5926 5928 5930 5934 5929 5928 5925 5923 5926 5925 5922 5918
5866 5872 5878 5882 5886 5890 5894 5896 5898 5900 5903 5905 5905 5906 5907 5907 5907 5907 5908 5908 5909 5909 5908 5912 5913 5914 5915 5906 5911 5912 5914 5915 5919 5920 5921 5924 5927 5929 5922 5920 5918 5920 5921 5916 5914
5859 5865 5872 5876 5881 5885 5890 5891 5893 5896 5899 5901 5902 5903 5904 5907 5905 5905 5906 5908 5903 5903 5904 5906 5907 5910 5911 5906 5908 5910 5909 5911 5914 5917 5920 5923 5926 5918 5921 5915 5913 5916 5913 5908 5914
5852 5858 5863 5869 5876 5879 5883 5886 5887 5891 5893 5895 5897 5898 5898 5900 5902 5901 5905 5904 5897 5896 5899 5901 5901 5904 5908 5910 5908 5906 5909 5911 5911 5912 5914 5916 5917 5913 5916 5913 5910 5908 5905 5904 5912
5844 5850 5857 5863 5869 5873 5876 5878 5882 5884 5887 5889 5890 5892 5892 5893 5894 5894 5899 5892 5890 5892 5891 5894 5897 5899 5901 5908 5908 5905 5904 5904 5906 5908 5911 5913 5916 5913 5905 5905 5903 5899 5899 5901 5905
5838 5845 5851 5857 5860 5866 5869 5871 5875 5877 5880 5882 5884 5884 5886 5886 5887 5887 5889 5886 5882 5886 5887 5888 5891 5891 5894 5898 5896 5898 5898 5899 5900 5903 5905 5908 5912 5910 5899 5899 5894 5891 5893 5895 5901
5831 5835 5839 5849 5855 5858 5861 5865 5868 5870 5873 5874 5876 5877 5879 5879 5880 5880 5880 5880 5877 5875 5877 5880 5880 5882 5884 5887 5889 5892 5892 5894 5891 5896 5898 5899 5898 5899 5898 5897 5889 5884 5882 5886 5893
5824 5827 5836 5842 5846 5851 5854 5859 5862 5863 5865 5868 5869 5869 5870 5871 5871 5872 5873 5873 5875 5871 5870 5872 5873 5873 5875 5877 5879 5880 5882 5883 5885 5887 5888 5890 5891 5893 5892 5887 5886 5882 5874 5876 5883
5821 5826 5830 5836 5842 5846 5849 5851 5854 5856 5856 5860 5859 5862 5861 5859 5862 5863 5862 5864 5864 5863 5864 5865 5865 5866 5865 5868 5869 5868 5876 5877 5875 5878 5881 5881 5884 5886 5886 5877 5868 5873 5872 5865 5871